WA5KWK Weather Reports


Display with metric or nautical units.
time (UTC)temp
F
wind
direction
speed
MPH
gust
MPH
rain 1hr
in
rain 24hr
in
rain mn
in
humidity
%
barometer
mb
20260906114504 58 338 1.0 2.0 0.00 0.00 0.00 68 1014.3
20260906114004 58 338 1.0 2.0 0.00 0.00 0.00 68 1014.3
20260906113505 58 338 1.0 2.0 0.00 0.00 0.00 67 1014.4
20260906113005 59 338 1.0 1.0 0.00 0.00 0.00 67 1014.4
20260906112504 59 338 0.0 1.0 0.00 0.00 0.00 67 1014.3
20260906111504 59 338 1.0 3.0 0.00 0.00 0.00 67 1014.3
20260906110504 60 338 0.0 0.0 0.00 0.00 0.00 65 1014.3
20260906110005 60 338 0.0 0.0 0.00 0.00 0.00 64 1014.3
20260906105505 60 338 0.0 0.0 0.00 0.00 0.00 64 1014.2
20260906105004 61 338 0.0 0.0 0.00 0.00 0.00 63 1014.2
20260906104005 61 338 0.0 0.0 0.00 0.00 0.00 62 1014.3
20260906103504 61 338 0.0 0.0 0.00 0.00 0.00 63 1014.2
20260906103004 61 338 0.0 0.0 0.00 0.00 0.00 63 1014.3
20260906102505 61 338 0.0 0.0 0.00 0.00 0.00 63 1014.3
20260906101504 61 338 0.0 0.0 0.00 0.00 0.00 63 1014.2
20260906101004 61 338 0.0 0.0 0.00 0.00 0.00 62 1014.2
20260906100504 62 338 0.0 0.0 0.00 0.00 0.00 62 1014.3
20260906100004 62 338 0.0 0.0 0.00 0.00 0.00 62 1014.4
20260906095504 62 338 0.0 0.0 0.00 0.00 0.00 62 1014.4
20260906094504 62 338 1.0 2.0 0.00 0.00 0.00 62 1014.4
20260906094004 61 338 1.0 2.0 0.00 0.00 0.00 62 1014.5
20260906092504 59 338 1.0 2.0 0.00 0.00 0.00 66 1014.6
20260906092004 59 338 0.0 2.0 0.00 0.00 0.00 66 1014.6
20260906091504 59 338 0.0 0.0 0.00 0.00 0.00 67 1014.7
20260906091004 59 338 0.0 0.0 0.00 0.00 0.00 67 1014.8
20260906090503 58 338 0.0 0.0 0.00 0.00 0.00 67 1014.7
20260906090004 58 338 0.0 0.0 0.00 0.00 0.00 68 1014.7
20260906085504 58 338 0.0 0.0 0.00 0.00 0.00 68 1014.7
20260906084505 57 338 0.0 1.0 0.00 0.00 0.00 69 1014.9
20260906084005 57 338 1.0 2.0 0.00 0.00 0.00 69 1014.9
20260906083504 57 338 1.0 2.0 0.00 0.00 0.00 69 1014.8
20260906083005 57 338 1.0 2.0 0.00 0.00 0.00 70 1014.8
20260906082507 57 338 1.0 2.0 0.00 0.00 0.00 69 1014.8
20260906081504 57 338 1.0 2.0 0.00 0.00 0.00 69 1014.9
20260906081004 58 338 1.0 2.0 0.00 0.00 0.00 68 1014.8
20260906080504 58 338 0.0 0.0 0.00 0.00 0.00 69 1014.8
20260906080004 58 338 1.0 2.0 0.00 0.00 0.00 69 1014.7
20260906075504 57 338 1.0 2.0 0.00 0.00 0.00 69 1014.8
20260906075004 57 338 2.0 3.0 0.00 0.00 0.00 70 1014.8
20260906074504 57 338 2.0 3.0 0.00 0.00 0.00 70 1014.8
20260906074005 57 338 2.0 3.0 0.00 0.00 0.00 70 1014.8
20260906073504 57 338 2.0 3.0 0.00 0.00 0.00 69 1014.8
20260906073004 57 338 3.0 3.0 0.00 0.00 0.00 69 1014.7
20260906072504 57 338 2.0 3.0 0.00 0.00 0.00 68 1014.8
20260906072004 58 338 2.0 3.0 0.00 0.00 0.00 68 1015.0
20260906071005 58 338 2.0 3.0 0.00 0.00 0.00 67 1015.0
20260906070504 58 338 2.0 3.0 0.00 0.00 0.00 66 1014.8
20260906070004 59 338 2.0 3.0 0.00 0.00 0.00 66 1014.8
20260906065505 59 338 2.0 3.0 0.00 0.00 0.00 66 1014.8
20260906065005 59 338 2.0 3.0 0.00 0.00 0.00 65 1014.7
20260906064004 59 338 0.0 0.0 0.00 0.00 0.00 65 1014.9
20260906063504 59 338 0.0 0.0 0.00 0.00 0.00 66 1014.9
20260906063004 59 338 0.0 0.0 0.00 0.00 0.00 66 1015.1
20260906061004 58 338 1.0 2.0 0.00 0.00 0.00 67 1014.9
20260906060504 58 338 1.0 3.0 0.00 0.00 0.00 67 1015.1
20260906060004 58 338 1.0 2.0 0.00 0.00 0.00 67 1015.1
20260906055004 58 338 2.0 3.0 0.00 0.00 0.00 66 1015.1
20260906054004 58 338 2.0 3.0 0.00 0.00 0.00 65 1015.1
20260906053504 59 338 2.0 3.0 0.00 0.00 0.00 63 1015.2
20260906052504 60 338 0.0 0.0 0.00 0.00 0.00 62 1015.1
20260906052004 60 338 0.0 0.0 0.00 0.00 0.00 62 1015.3
20260906051504 60 338 1.0 2.0 0.00 0.00 0.00 62 1015.4
20260906051004 61 338 1.0 2.0 0.00 0.00 0.00 61 1015.4
20260906050504 61 338 1.0 3.0 0.00 0.00 0.00 60 1015.3
20260906050004 61 338 0.0 0.0 0.00 0.00 0.00 60 1015.4
20260906044004 62 338 1.0 2.0 0.00 0.00 0.00 58 1015.3
20260906043503 62 338 0.0 1.0 0.00 0.00 0.00 58 1015.2
20260906043004 62 338 1.0 3.0 0.00 0.00 0.00 58 1015.3
20260906042503 62 338 1.0 3.0 0.00 0.00 0.00 58 1015.3
20260906042004 62 338 1.0 3.0 0.00 0.00 0.00 58 1015.3
20260906041504 62 338 1.0 2.0 0.00 0.00 0.00 57 1015.4
20260906041003 62 338 1.0 2.0 0.00 0.00 0.00 57 1015.2
20260906040504 62 338 1.0 2.0 0.00 0.00 0.00 57 1015.3
20260906040004 62 338 1.0 3.0 0.00 0.00 0.00 56 1015.2
20260906035503 62 338 1.0 3.0 0.00 0.00 0.00 56 1015.2
20260906035004 63 338 0.0 0.0 0.00 0.00 0.00 56 1015.0
20260906034503 63 338 0.0 0.0 0.00 0.00 0.00 56 1015.0
20260906034004 63 338 0.0 0.0 0.00 0.00 0.00 55 1015.1
20260906033503 63 338 0.0 0.0 0.00 0.00 0.00 55 1015.0
20260906032004 64 338 0.0 1.0 0.00 0.00 0.00 54 1014.8
20260906031504 64 338 0.0 1.0 0.00 0.00 0.00 54 1014.8
20260906031004 65 338 0.0 2.0 0.00 0.00 0.00 54 1014.9
20260906030504 65 338 0.0 1.0 0.00 0.00 0.00 53 1014.7
20260906030004 65 338 0.0 0.0 0.00 0.00 0.00 53 1014.9
20260906025504 66 338 0.0 0.0 0.00 0.00 0.00 53 1014.7
20260906025004 66 338 0.0 0.0 0.00 0.00 0.00 53 1014.7
20260906024504 66 338 0.0 0.0 0.00 0.00 0.00 53 1014.7
20260906024003 66 338 0.0 0.0 0.00 0.00 0.00 52 1014.7
20260906023504 67 338 0.0 0.0 0.00 0.00 0.00 52 1014.8
20260906023004 67 338 0.0 2.0 0.00 0.00 0.00 52 1014.7
20260906022003 67 338 1.0 5.0 0.00 0.00 0.00 51 1014.7
20260906021505 67 297 1.0 3.0 0.00 0.00 0.00 51 1014.8
20260906020505 68 294 1.0 3.0 0.00 0.00 0.00 50 1014.9
20260906020005 68 247 2.0 5.0 0.00 0.00 0.00 50 1014.7
20260906015505 69 6 2.0 7.0 0.00 0.00 0.00 50 1014.8
20260906015005 69 273 1.0 7.0 0.00 0.00 0.00 49 1014.8
20260906014505 70 263 3.0 6.0 0.00 0.00 0.00 49 1014.8
20260906014004 70 271 2.0 3.0 0.00 0.00 0.00 49 1014.8
20260906013505 70 297 2.0 8.0 0.00 0.00 0.00 48 1014.7
20260906013005 71 273 5.0 8.0 0.00 0.00 0.00 47 1014.7
20260906012504 72 298 2.0 6.0 0.00 0.00 0.00 46 1014.8
20260906012005 73 235 3.0 8.0 0.00 0.00 0.00 46 1014.8
20260906011505 73 168 4.0 7.0 0.00 0.00 0.00 46 1014.8
20260906011006 73 298 2.0 8.0 0.00 0.00 0.00 46 1014.7
20260906010505 73 281 2.0 7.0 0.00 0.00 0.00 46 1014.8
20260906010005 73 265 3.0 5.0 0.00 0.00 0.00 46 1014.7
20260906005505 73 243 2.0 7.0 0.00 0.00 0.00 46 1014.7
20260906005005 73 225 2.0 7.0 0.00 0.00 0.00 46 1014.8
20260906004504 73 206 3.0 7.0 0.00 0.00 0.00 47 1014.8
20260906003505 73 187 3.0 10.0 0.00 0.00 0.00 46 1014.7
20260906003005 73 256 3.0 8.0 0.00 0.00 0.00 45 1014.8
20260906002505 74 249 3.0 6.0 0.00 0.00 0.00 46 1014.7
20260906002005 73 221 3.0 8.0 0.00 0.00 0.00 45 1014.8
20260906001504 73 228 5.0 10.0 0.00 0.00 0.00 45 1014.8
20260906001005 74 205 6.0 10.0 0.00 0.00 0.00 44 1014.8
20260906000505 74 296 2.0 7.0 0.00 0.00 0.00 45 1014.6
20260906000004 74 194 5.0 9.0 0.00 0.00 0.00 45 1014.9
20260905235505 74 283 3.0 8.0 0.00 0.00 0.00 45 1014.8
20260905235005 74 259 4.0 12.0 0.00 0.00 0.00 44 1014.9
20260905234005 74 315 2.0 10.0 0.00 0.00 0.00 45 1014.9
20260905233505 75 206 3.0 10.0 0.00 0.00 0.00 44 1014.9
20260905233005 74 205 2.0 8.0 0.00 0.00 0.00 45 1015.0
20260905232504 74 229 2.0 9.0 0.00 0.00 0.00 45 1014.9
20260905232005 74 206 5.0 9.0 0.00 0.00 0.00 45 1014.9
20260905231005 74 251 3.0 10.0 0.00 0.00 0.00 45 1015.0
20260905230005 74 303 3.0 7.0 0.00 0.00 0.00 45 1015.1
20260905225505 74 227 4.0 10.0 0.00 0.00 0.00 45 1015.0
20260905225005 74 192 6.0 12.0 0.00 0.00 0.00 44 1015.0
20260905224005 75 241 5.0 13.0 0.00 0.00 0.00 43 1015.1
20260905223505 74 195 4.0 12.0 0.00 0.00 0.00 44 1015.0
20260905223005 74 186 7.0 15.0 0.00 0.00 0.00 43 1015.0
20260905222505 74 182 5.0 10.0 0.00 0.00 0.00 42 1015.0
20260905222004 73 231 3.0 8.0 0.00 0.00 0.00 43 1015.2
20260905221004 75 182 5.0 12.0 0.00 0.00 0.00 41 1015.2
20260905220504 75 310 4.0 7.0 0.00 0.00 0.00 41 1015.2
20260905220005 74 212 5.0 12.0 0.00 0.00 0.00 42 1015.2
20260905215505 74 212 4.0 10.0 0.00 0.00 0.00 42 1015.1
20260905215005 74 213 6.0 13.0 0.00 0.00 0.00 42 1015.4
20260905214505 75 266 3.0 12.0 0.00 0.00 0.00 42 1015.2
20260905214006 75 270 5.0 10.0 0.00 0.00 0.00 41 1015.2
20260905213504 74 213 4.0 10.0 0.00 0.00 0.00 43 1015.3
20260905213004 73 247 5.0 12.0 0.00 0.00 0.00 42 1015.3
20260905212504 73 225 5.0 12.0 0.00 0.00 0.00 42 1015.4
20260905211005 73 222 3.0 10.0 0.00 0.00 0.00 42 1015.4
20260905210504 73 235 5.0 9.0 0.00 0.00 0.00 42 1015.5
20260905210004 73 200 5.0 12.0 0.00 0.00 0.00 42 1015.3
20260905205504 73 185 4.0 8.0 0.00 0.00 0.00 43 1015.3
20260905205005 73 261 4.0 8.0 0.00 0.00 0.00 43 1015.1
20260905204504 72 284 2.0 3.0 0.00 0.00 0.00 42 1015.3
20260905204004 72 200 4.0 12.0 0.00 0.00 0.00 43 1015.4
20260905203505 73 186 3.0 12.0 0.00 0.00 0.00 43 1015.5
20260905203005 73 290 2.0 9.0 0.00 0.00 0.00 43 1015.2
20260905202504 73 221 5.0 9.0 0.00 0.00 0.00 42 1015.4
20260905202004 73 209 7.0 10.0 0.00 0.00 0.00 42 1015.2
20260905201504 73 186 6.0 18.0 0.00 0.00 0.00 45 1015.2
20260905201004 73 255 8.0 18.0 0.00 0.00 0.00 46 1015.4
20260905200004 73 212 7.0 16.0 0.00 0.00 0.00 46 1015.4
20260905194005 72 174 5.0 9.0 0.00 0.00 0.00 42 1015.6
20260905193505 72 140 6.0 10.0 0.00 0.00 0.00 45 1015.6
20260905192504 73 143 6.0 12.0 0.00 0.00 0.00 45 1015.8
20260905192005 72 169 5.0 12.0 0.00 0.00 0.00 46 1015.8
20260905191504 71 243 7.0 12.0 0.00 0.00 0.00 45 1015.8
20260905191004 71 226 5.0 10.0 0.00 0.00 0.00 44 1015.8
20260905190005 70 228 6.0 9.0 0.00 0.00 0.00 44 1015.7
20260905185504 70 198 7.0 12.0 0.00 0.00 0.00 43 1015.6
20260905185005 72 214 6.0 9.0 0.00 0.00 0.00 42 1015.8
20260905184505 72 224 4.0 9.0 0.00 0.00 0.00 44 1015.8
20260905183505 73 181 3.0 12.0 0.00 0.00 0.00 45 1015.8
20260905182005 71 240 5.0 7.0 0.00 0.00 0.00 44 1015.8
20260905181504 70 174 4.0 9.0 0.00 0.00 0.00 45 1015.8
20260905181005 70 194 6.0 12.0 0.00 0.00 0.00 45 1015.7
20260905180505 69 172 7.0 12.0 0.00 0.00 0.00 44 1015.6
20260905180005 69 215 6.0 9.0 0.00 0.00 0.00 45 1015.6
20260905175505 70 184 4.0 8.0 0.00 0.00 0.00 43 1015.5
20260905175004 69 191 5.0 9.0 0.00 0.00 0.00 43 1015.5
20260905174004 70 233 5.0 9.0 0.00 0.00 0.00 46 1015.6
20260905173505 70 242 6.0 12.0 0.00 0.00 0.00 46 1015.6
20260905172504 69 212 3.0 8.0 0.00 0.00 0.00 49 1015.6
20260905172005 69 176 4.0 7.0 0.00 0.00 0.00 49 1015.6
20260905171005 69 238 1.0 8.0 0.00 0.01 0.00 47 1015.4
20260905170505 69 195 5.0 8.0 0.00 0.01 0.00 47 1015.6
20260905165504 69 207 5.0 7.0 0.00 0.01 0.00 49 1015.3
20260905165004 68 219 4.0 10.0 0.00 0.01 0.00 48 1015.3
20260905164005 69 238 4.0 7.0 0.00 0.01 0.00 47 1015.2
20260905163504 69 176 3.0 8.0 0.00 0.01 0.00 48 1015.3
20260905163005 69 219 3.0 7.0 0.00 0.01 0.00 47 1015.2
20260905162504 69 172 4.0 9.0 0.00 0.01 0.00 47 1015.2
20260905162005 69 179 4.0 7.0 0.00 0.01 0.00 47 1015.2
20260905161504 69 173 2.0 6.0 0.00 0.01 0.00 49 1015.2
20260905161004 68 165 3.0 5.0 0.00 0.01 0.00 50 1015.2
20260905160505 67 180 2.0 8.0 0.00 0.01 0.00 51 1015.2
20260905160004 66 202 2.0 6.0 0.00 0.01 0.00 54 1015.0
20260905155505 66 202 2.0 5.0 0.00 0.01 0.00 54 1015.0
20260905155004 65 221 1.0 3.0 0.00 0.01 0.00 53 1015.0
20260905154504 65 221 1.0 3.0 0.00 0.01 0.00 55 1015.1
20260905154004 65 221 2.0 3.0 0.00 0.01 0.00 54 1015.0
20260905152504 65 282 1.0 3.0 0.00 0.01 0.00 54 1015.0
20260905152005 65 284 2.0 3.0 0.00 0.01 0.00 55 1015.0
20260905151505 64 355 1.0 3.0 0.00 0.01 0.00 55 1014.8
20260905151005 64 355 1.0 3.0 0.00 0.01 0.00 55 1014.9
20260905150505 64 355 1.0 2.0 0.00 0.01 0.00 55 1014.9
20260905150005 63 355 0.0 2.0 0.00 0.01 0.00 56 1014.9
20260905145504 63 355 1.0 2.0 0.00 0.01 0.00 56 1014.8
20260905144505 62 355 0.0 1.0 0.00 0.01 0.00 58 1014.8
20260905144005 61 355 1.0 1.0 0.00 0.01 0.00 60 1014.9
20260905143505 61 355 0.0 0.0 0.00 0.01 0.00 59 1014.8
20260905142504 61 355 0.0 1.0 0.00 0.01 0.00 58 1014.8
20260905142005 61 355 0.0 1.0 0.00 0.01 0.00 58 1014.8
20260905141504 61 355 0.0 0.0 0.00 0.01 0.00 58 1014.7
20260905141004 61 355 0.0 0.0 0.00 0.01 0.00 58 1014.7
20260905140504 61 355 0.0 0.0 0.00 0.01 0.00 57 1014.6
20260905135505 61 355 0.0 1.0 0.00 0.01 0.00 56 1014.6
20260905135004 61 355 0.0 1.0 0.00 0.01 0.00 56 1014.5
20260905134504 61 355 1.0 2.0 0.00 0.01 0.00 56 1014.4
20260905134004 61 355 1.0 2.0 0.00 0.01 0.00 55 1014.4
20260905133505 61 355 1.0 3.0 0.00 0.01 0.00 55 1014.5
20260905133005 61 355 1.0 3.0 0.00 0.01 0.00 55 1014.4
20260905132504 61 355 1.0 2.0 0.00 0.01 0.00 55 1014.4
20260905131505 61 355 2.0 3.0 0.00 0.01 0.00 56 1014.5
20260905131004 61 355 2.0 3.0 0.00 0.01 0.00 56 1014.4
20260905130504 61 355 1.0 3.0 0.00 0.01 0.00 56 1014.5
20260905130005 61 355 1.0 3.0 0.00 0.01 0.00 57 1014.1
20260905125504 61 355 2.0 3.0 0.00 0.01 0.00 57 1014.2
20260905125004 61 355 2.0 3.0 0.00 0.01 0.00 57 1014.3
20260905124504 61 355 2.0 3.0 0.00 0.01 0.00 57 1014.3
20260905124004 61 355 0.0 2.0 0.00 0.01 0.00 57 1014.3
20260905123504 61 355 1.0 3.0 0.00 0.01 0.00 57 1014.4
20260905122504 60 355 1.0 2.0 0.00 0.01 0.00 58 1014.4
20260905122004 60 355 2.0 3.0 0.00 0.01 0.00 58 1014.4
20260905121504 59 355 2.0 3.0 0.00 0.01 0.00 59 1014.5
20260905121004 59 355 2.0 3.0 0.00 0.01 0.00 60 1014.4
20260905120504 59 355 1.0 2.0 0.00 0.01 0.00 60 1014.5
20260905115005 59 355 0.0 0.0 0.00 0.01 0.00 60 1014.5